When you browse on this site, cookies collect data to enhance your experience and personalize the content and advertising you see.
Visit our Privacy Policy to learn more. By continuing to use the site, you agree to this use of cookies and data.
  • In France
  • List of Countries
  • For 7 days
  • Water Temperature
  • Weather Map
  • Weather Widgets
  • user-avatar
    Login

    Hourly Weather Solwezi

    Today, 1 June, Monday

    Time Temperature Precipitation Wind Pressure Humidity
    00:00 +35°C° 0 mm 2 mps 713 mmHg 12%
    01:00 +35°C° 0 mm 3 mps 713 mmHg 12%
    02:00 +35°C° 0 mm 3 mps 713 mmHg 12%
    03:00 +34°C° 0 mm 3 mps 713 mmHg 13%
    04:00 +33°C° 0 mm 4 mps 713 mmHg 13%
    05:00 +32°C° 0 mm 4 mps 713 mmHg 14%
    06:00 +33°C° 0 mm 5 mps 714 mmHg 13%
    07:00 +35°C° 0 mm 6 mps 715 mmHg 12%
    08:00 +36°C° 0 mm 6 mps 715 mmHg 11%
    09:00 +38°C° 0 mm 6 mps 715 mmHg 11%
    10:00 +40°C° 0 mm 6 mps 715 mmHg 10%
    11:00 +41°C° 0 mm 6 mps 715 mmHg 10%
    12:00 +42°C° 0 mm 6 mps 715 mmHg 9%
    13:00 +43°C° 0 mm 5 mps 714 mmHg 8%
    14:00 +43°C° 0 mm 5 mps 714 mmHg 6%
    15:00 +43°C° 0 mm 4 mps 713 mmHg 7%
    16:00 +43°C° 0 mm 4 mps 713 mmHg 7%
    17:00 +43°C° 0 mm 4 mps 712 mmHg 7%
    18:00 +42°C° 0 mm 4 mps 712 mmHg 7%
    19:00 +39°C° 0 mm 3 mps 712 mmHg 8%
    20:00 +38°C° 0 mm 3 mps 712 mmHg 9%
    21:00 +37°C° 0 mm 3 mps 712 mmHg 9%
    22:00 +36°C° 0 mm 2 mps 712 mmHg 10%
    23:00 +35°C° 0 mm 2 mps 712 mmHg 10%

    Tomorrow, 2 June, Tuesday

    Time Temperature Precipitation Wind Pressure Humidity
    00:00 +35°C° 0 mm 2 mps 712 mmHg 11%
    01:00 +34°C° 0 mm 2 mps 711 mmHg 11%
    02:00 +32°C° 0 mm 1 mps 711 mmHg 12%
    03:00 +32°C° 0 mm 2 mps 711 mmHg 12%
    04:00 +31°C° 0 mm 2 mps 711 mmHg 13%
    05:00 +31°C° 0 mm 2 mps 712 mmHg 13%
    06:00 +32°C° 0 mm 2 mps 712 mmHg 12%
    07:00 +35°C° 0 mm 2 mps 713 mmHg 11%
    08:00 +35°C° 0 mm 1 mps 714 mmHg 10%
    09:00 +38°C° 0 mm 2 mps 714 mmHg 9%
    10:00 +39°C° 0 mm 3 mps 714 mmHg 8%
    11:00 +42°C° 0 mm 3 mps 714 mmHg 7%
    12:00 +43°C° 0 mm 3 mps 713 mmHg 7%
    13:00 +43°C° 0 mm 3 mps 713 mmHg 7%
    14:00 +44°C° 0 mm 3 mps 712 mmHg 6%
    15:00 +44°C° 0 mm 3 mps 712 mmHg 6%
    16:00 +44°C° 0 mm 3 mps 711 mmHg 7%
    17:00 +44°C° 0 mm 3 mps 711 mmHg 7%
    18:00 +43°C° 0 mm 3 mps 711 mmHg 7%
    19:00 +40°C° 0 mm 3 mps 711 mmHg 8%
    20:00 +38°C° 0 mm 3 mps 711 mmHg 9%
    21:00 +38°C° 0 mm 3 mps 711 mmHg 10%
    22:00 +37°C° 0 mm 3 mps 711 mmHg 11%
    23:00 +36°C° 0 mm 3 mps 711 mmHg 12%

    Day after tomorrow, 3 June, Wednesday

    Time Temperature Precipitation Wind Pressure Humidity
    00:00 +36°C° 0 mm 2 mps 711 mmHg 13%
    01:00 +35°C° 0 mm 2 mps 710 mmHg 14%
    02:00 +34°C° 0 mm 2 mps 710 mmHg 15%
    03:00 +33°C° 0 mm 3 mps 710 mmHg 19%
    04:00 +33°C° 0 mm 3 mps 711 mmHg 23%
    05:00 +32°C° 0 mm 4 mps 711 mmHg 27%
    06:00 +33°C° 0 mm 5 mps 712 mmHg 28%
    07:00 +34°C° 0 mm 5 mps 712 mmHg 29%
    08:00 +34°C° 0 mm 6 mps 713 mmHg 30%
    09:00 +36°C° 0 mm 5 mps 713 mmHg 26%
    10:00 +39°C° 0 mm 5 mps 713 mmHg 23%
    11:00 +41°C° 0 mm 4 mps 713 mmHg 19%
    12:00 +42°C° 0 mm 4 mps 712 mmHg 17%
    13:00 +43°C° 0 mm 3 mps 712 mmHg 14%
    14:00 +43°C° 0 mm 2 mps 711 mmHg 12%
    15:00 +43°C° 0 mm 2 mps 711 mmHg 11%
    16:00 +43°C° 0 mm 2 mps 710 mmHg 10%
    17:00 +45°C° 0 mm 2 mps 710 mmHg 9%
    18:00 +42°C° 0 mm 2 mps 710 mmHg 10%
    19:00 +40°C° 0 mm 1 mps 710 mmHg 12%
    20:00 +37°C° 0 mm 1 mps 710 mmHg 13%
    21:00 +38°C° 0 mm 2 mps 710 mmHg 14%
    22:00 +37°C° 0 mm 3 mps 710 mmHg 15%
    23:00 +37°C° 0 mm 3 mps 710 mmHg 17%

    4 June, Thursday

    Time Temperature Precipitation Wind Pressure Humidity
    00:00 +36°C° 0 mm 4 mps 710 mmHg 20%
    01:00 +35°C° 0 mm 5 mps 710 mmHg 23%
    02:00 +35°C° 0 mm 6 mps 710 mmHg 26%
    03:00 +34°C° 0 mm 5 mps 710 mmHg 34%
    04:00 +33°C° 0 mm 5 mps 711 mmHg 41%
    05:00 +32°C° 0 mm 4 mps 711 mmHg 49%
    06:00 +32°C° 0 mm 5 mps 712 mmHg 46%
    07:00 +33°C° 0 mm 6 mps 712 mmHg 44%
    08:00 +34°C° 0 mm 6 mps 713 mmHg 42%
    09:00 +36°C° 0 mm 6 mps 713 mmHg 36%
    10:00 +39°C° 0 mm 6 mps 713 mmHg 30%
    11:00 +41°C° 0 mm 6 mps 713 mmHg 24%
    12:00 +42°C° 0 mm 5 mps 713 mmHg 21%
    13:00 +43°C° 0 mm 3 mps 712 mmHg 18%
    14:00 +43°C° 0 mm 1 mps 711 mmHg 14%
    15:00 +43°C° 0 mm 2 mps 711 mmHg 13%
    16:00 +43°C° 0 mm 2 mps 711 mmHg 12%
    17:00 +45°C° 0 mm 2 mps 710 mmHg 11%
    18:00 +42°C° 0 mm 2 mps 710 mmHg 13%
    19:00 +41°C° 0 mm 2 mps 710 mmHg 14%
    20:00 +39°C° 0 mm 2 mps 710 mmHg 15%
    21:00 +38°C° 0 mm 2 mps 710 mmHg 16%
    22:00 +38°C° 0 mm 2 mps 711 mmHg 17%
    23:00 +37°C° 0 mm 2 mps 711 mmHg 18%

    5 June, Friday

    Time Temperature Precipitation Wind Pressure Humidity
    00:00 +36°C° 0 mm 3 mps 711 mmHg 20%
    01:00 +36°C° 0 mm 4 mps 710 mmHg 21%
    02:00 +35°C° 0 mm 5 mps 710 mmHg 23%
    03:00 +34°C° 0 mm 6 mps 711 mmHg 30%
    04:00 +33°C° 0 mm 6 mps 711 mmHg 38%
    05:00 +32°C° 0 mm 7 mps 711 mmHg 45%
    06:00 +33°C° 0 mm 7 mps 712 mmHg 44%
    07:00 +33°C° 0 mm 7 mps 712 mmHg 44%
    08:00 +34°C° 0 mm 7 mps 713 mmHg 43%
    09:00 +36°C° 0 mm 7 mps 713 mmHg 38%
    10:00 +39°C° 0 mm 6 mps 714 mmHg 32%
    11:00 +41°C° 0 mm 6 mps 714 mmHg 27%
    12:00 +42°C° 0 mm 5 mps 713 mmHg 23%
    13:00 +43°C° 0 mm 5 mps 713 mmHg 20%
    14:00 +44°C° 0 mm 4 mps 712 mmHg 17%
    15:00 +44°C° 0 mm 3 mps 711 mmHg 15%
    16:00 +44°C° 0 mm 3 mps 711 mmHg 14%
    17:00 +43°C° 0 mm 2 mps 710 mmHg 12%
    18:00 +42°C° 0 mm 2 mps 710 mmHg 13%
    19:00 +40°C° 0 mm 2 mps 711 mmHg 15%
    20:00 +39°C° 0 mm 2 mps 711 mmHg 16%
    21:00 +38°C° 0 mm 3 mps 711 mmHg 19%
    22:00 +37°C° 0 mm 4 mps 711 mmHg 21%
    23:00 +36°C° 0 mm 4 mps 711 mmHg 24%

    6 June, Saturday

    Time Temperature Precipitation Wind Pressure Humidity
    00:00 +35°C° 0 mm 4 mps 711 mmHg 27%
    01:00 +34°C° 0 mm 4 mps 711 mmHg 30%
    02:00 +33°C° 0 mm 4 mps 711 mmHg 32%
    03:00 +32°C° 0 mm 4 mps 711 mmHg 34%
    04:00 +32°C° 0 mm 5 mps 711 mmHg 36%
    05:00 +30°C° 0 mm 5 mps 711 mmHg 38%
    06:00 +32°C° 0 mm 5 mps 712 mmHg 39%
    07:00 +33°C° 0 mm 6 mps 712 mmHg 40%
    08:00 +33°C° 0 mm 6 mps 713 mmHg 40%
    09:00 +36°C° 0 mm 6 mps 713 mmHg 34%
    10:00 +39°C° 0 mm 6 mps 713 mmHg 28%
    11:00 +41°C° 0 mm 6 mps 714 mmHg 22%
    12:00 +42°C° 0 mm 6 mps 713 mmHg 20%
    13:00 +43°C° 0 mm 5 mps 712 mmHg 18%
    14:00 +44°C° 0 mm 4 mps 711 mmHg 16%
    15:00 +44°C° 0 mm 3 mps 711 mmHg 15%
    16:00 +43°C° 0 mm 2 mps 711 mmHg 14%
    17:00 +43°C° 0 mm 2 mps 710 mmHg 13%
    18:00 +41°C° 0 mm 2 mps 710 mmHg 15%
    19:00 +40°C° 0 mm 2 mps 710 mmHg 17%
    20:00 +38°C° 0 mm 2 mps 709 mmHg 19%
    21:00 +37°C° 0 mm 2 mps 710 mmHg 20%
    22:00 +37°C° 0 mm 2 mps 710 mmHg 21%
    23:00 +36°C° 0 mm 3 mps 711 mmHg 22%
    Show more